THORAD AGENA D DEB, 4655

Orbit data source: Space-Track

THORAD AGENA D DEB, 4655 is space debris in SSO originally from a launch on Wed, 08 Apr 1970 UTC launched from the Air Force Western Test Range (AFWTR). Debris objects in space refer to the collection of defunct objects orbiting the Earth. Examples of debris include non-operational satellites, rocket bodies, and fragments generated from explosions, collisions, or faulty payload assembly.

Loading next visibility...
Identifier
4655, 1970-025AP
Orbit
SSO
Country
Flag of USUS
Related business
Manufacturer
Unknown
Mission
Spacecraft
Bus & Motor
Unknown
Mass
Unknown
Launch date (UTC)
1970-04-08 (56 years ago)
Launch vehicle
Unknown
Launch site
Air Force Western Test Range (AFWTR)
Object type
Payload
Rocket body
Debris
Shape & HBR
Unknown shape, 0.1 m
Radar Cross Section
Small (<0.1 m²)

Expand to show TLE details & history
Last TLE update: 17 hours ago

TLE from 17 hours ago
0 THORAD AGENA D DEB
1 04655U 70025AP  25347.25420715  .00000442  00000-0  55958-3 0  9996
2 04655  99.9656  85.9419 0054146 258.9266 100.5786 13.69248497772376
Epoch: 2025-12-13T06:06Z
TLE epoch observation values (Epoch: 2025-12-13T06:06:03.497Z)
Latitude
-0.00003°
Longitude
-87.75678°
Altitude
1,012.619 km
Speed
7.342 km/s
True Right ascension
05h 43m 46s
True Declination
0° 00' 00"
Sunlit
Object was in full shadow at epoch
Visualization orbit readout
Latitude
Unknown
Longitude
Unknown
Altitude
Unknown
Speed
Unknown
Apparent Right ascension
Unknown
Apparent Declination
Unknown
Sunlit
N/A
Visualization observer readout
Local Sidereal Time
21:45:10
Azimuth
Unknown
Elevation
Unknown
Doppler factor
Unknown
Orbital elements
Apogee altitude
1,039.507 km
Perigee altitude
959.613 km
Semi-major axis
7,377.697 km
Eccentricity
0.00541
Inclination
99.9656°
RAAN
85.9419°
Arg. of periapsis
258.9266°
True anomaly
101.18775°
Mean anomaly
100.5786°
Eccentric anomaly
100.88325°
Mean motion
3.42501 °/min
Orbital period
105.11 mins
BSTAR
0.00055958
Loading maneuver chart data...
Computing Atmospheric mass density...

Documentation

Showing up to 5 results
|